Buoy 52609

sailwx.info

Track history (hours):
 
Tides and Currents Weather Stations Pressure Air Temp Water Temp Dewpoint Dewpoint Depression Visibility Wind Speed Wind Dir Waves Ship Positions

Drifting buoy 52609

Last reported at 2014-Jul-29 07:00 UTC. Time now 2014-Jul-29 10:47 UTC.
Position N 08°59' E 160°10'.

Water temperature 30.2 ° C

Date/timePositionNaut miles runAvg speedWind from/ knotsBaromVisibWave heightAir tempDewpointWater temp
2014-Jul-29 07:00N 08°59' E 160°10'0 0.1 30.2
2014-Jul-29 06:00N 08°59' E 160°10'0 0.5 30.3
2014-Jul-29 05:00N 08°59' E 160°10'1 0.3 30.4
2014-Jul-29 03:00N 08°60' E 160°10'1 0.5 30.1
2014-Jul-29 00:00N 09°01' E 160°11'0 0.0 29.8
2014-Jul-28 22:00N 09°01' E 160°11'1 0.2 29.6
2014-Jul-28 17:00N 09°01' E 160°10'1 0.2 29.6
2014-Jul-28 09:00N 09°01' E 160°12'1 0.3 29.9
2014-Jul-28 07:00N 09°01' E 160°12'0 0.2 30.0
2014-Jul-28 06:00N 09°01' E 160°12'0 0.0 30.1
2014-Jul-28 03:00N 09°01' E 160°12'1 0.8 29.8
2014-Jul-28 02:00N 09°02' E 160°12'0 0.0 29.9
2014-Jul-28 01:00N 09°02' E 160°12'1 0.1 29.7
2014-Jul-27 19:00N 09°03' E 160°12'0 0.0 29.4
2014-Jul-27 18:00N 09°03' E 160°12'0 0.0 29.4
2014-Jul-27 17:00N 09°03' E 160°12'1 0.7 29.4
2014-Jul-27 16:00N 09°03' E 160°12'1 0.2 29.4
2014-Jul-27 11:00N 09°04' E 160°11'1 1.2 29.4
2014-Jul-27 10:00N 09°05' E 160°10'0 0.0 29.4
2014-Jul-27 08:00N 09°05' E 160°10'1 0.3 29.4
2014-Jul-27 04:00N 09°05' E 160°09'1 0.8 29.6
2014-Jul-27 03:00N 09°05' E 160°08'0 0.0 29.6
2014-Jul-27 02:00N 09°05' E 160°08'0 0.0 29.5
2014-Jul-27 01:00N 09°05' E 160°08'1 0.4 29.4
2014-Jul-26 23:00N 09°06' E 160°07'1 1.4 29.4
2014-Jul-26 22:00N 09°05' E 160°06'0 0.1 29.4
2014-Jul-26 18:00N 09°05' E 160°06'0 0.1 29.4
2014-Jul-26 15:00N 09°05' E 160°06'0 0.1 29.4
2014-Jul-26 11:00N 09°04' E 160°06'2 0.2 29.5
2014-Jul-26 04:00N 09°03' E 160°06'1 0.6 29.7
2014-Jul-26 03:00N 09°02' E 160°07'3 0.5 29.6
2014-Jul-25 21:00N 09°03' E 160°10'2 0.9 29.4
2014-Jul-25 19:00N 09°04' E 160°12'0 0.2 29.4
2014-Jul-25 18:00N 09°04' E 160°12'0 0.0 29.4
2014-Jul-25 17:00N 09°04' E 160°12'4 1.8 29.4
2014-Jul-25 15:00N 09°08' E 160°13'4 0.5 29.5
2014-Jul-25 07:00N 09°11' E 160°14'1 0.5 30.0
2014-Jul-25 05:00N 09°12' E 160°13'1 0.7 30.3
2014-Jul-25 04:00N 09°13' E 160°13'1 1.2 30.1
2014-Jul-25 03:00N 09°14' E 160°12'3 0.6 29.7
2014-Jul-24 22:00N 09°16' E 160°10'2 0.5 29.5
2014-Jul-24 18:00N 09°18' E 160°09'0 0.1 29.5
2014-Jul-24 15:00N 09°18' E 160°09'2 0.5 29.6
2014-Jul-24 10:00N 09°20' E 160°08'2 2.1 30.1
2014-Jul-24 09:00N 09°22' E 160°07'2 0.5 30.2
2014-Jul-24 05:00N 09°22' E 160°05'1 0.2 30.4
2014-Jul-24 02:00N 09°22' E 160°05'1 0.4 30.5
2014-Jul-24 00:00N 09°22' E 160°04'2 0.3 30.0
2014-Jul-23 18:00N 09°24' E 160°05'2 0.7 29.4
2014-Jul-23 15:00N 09°22' E 160°03'2 0.4 29.4
2014-Jul-23 10:00N 09°22' E 160°05'1 0.3 29.5
2014-Jul-23 07:00N 09°23' E 160°05'1 0.4 29.6
2014-Jul-23 05:00N 09°24' E 160°05'0 0.2 29.7
2014-Jul-23 04:00N 09°24' E 160°05'0 0.0 29.8
2014-Jul-23 03:00N 09°24' E 160°05'1 0.2 29.7
2014-Jul-22 20:00N 09°25' E 160°05'1 1.0 29.3
2014-Jul-22 19:00N 09°26' E 160°06'1 1.0 29.3
2014-Jul-22 18:00N 09°27' E 160°05'0 0.0 29.3
2014-Jul-22 16:00N 09°27' E 160°05'0 0.0 29.3
2014-Jul-22 15:00N 09°27' E 160°05'1 1.0 29.3
2014-Jul-22 14:00N 09°27' E 160°06'0 0.0 29.3
2014-Jul-22 11:00N 09°27' E 160°06'1 0.5 29.4
2014-Jul-22 09:00N 09°28' E 160°06'0 0.0 29.4
2014-Jul-22 05:00N 09°28' E 160°06'1 1.3 29.6
2014-Jul-22 04:00N 09°29' E 160°05'0 0.0 29.7
2014-Jul-22 03:00N 09°29' E 160°05'0 0.1 29.7
2014-Jul-21 23:00N 09°29' E 160°04'1 0.2 29.4
2014-Jul-21 19:00N 09°28' E 160°04'0 0.0 29.3
2014-Jul-21 18:00N 09°28' E 160°04'0 0.0 29.4
2014-Jul-21 16:00N 09°28' E 160°04'0 0.3 29.4
2014-Jul-21 15:00N 09°28' E 160°03'3 0.5 29.4
2014-Jul-21 10:00N 09°26' E 160°05'1 0.2 29.4
2014-Jul-21 06:00N 09°27' E 160°05'1 0.3 29.5
2014-Jul-21 04:00N 09°26' E 160°05'0 0.5 29.5
2014-Jul-21 03:00N 09°26' E 160°04'2 0.2 29.5
2014-Jul-20 16:00N 09°25' E 160°06'0 0.3 29.4
2014-Jul-20 15:00N 09°25' E 160°05'3 0.7 29.5
2014-Jul-20 11:00N 09°22' E 160°07'3 0.5 29.5
2014-Jul-20 04:00N 09°23' E 160°10'0 0.0 29.7
2014-Jul-20 03:00N 09°23' E 160°10'2 0.3 29.6
2014-Jul-19 22:00N 09°24' E 160°12'0 0.0 29.4
2014-Jul-19 20:00N 09°24' E 160°12'1 1.2 29.4
2014-Jul-19 19:00N 09°25' E 160°13'3 0.3 29.4
2014-Jul-19 11:00N 09°27' E 160°13'1 0.5 29.5
2014-Jul-19 09:00N 09°28' E 160°14'   29.6
Track history (hours):
 
Tides and Currents Weather Stations Pressure Air Temp Water Temp Dewpoint Dewpoint Depression Visibility Wind Speed Wind Dir Waves Ship Positions

Drifting buoy 52609

Last reported at 2014-Jul-29 07:00 UTC. Time now 2014-Jul-29 10:47 UTC.
Position N 08°59' E 160°10'.

Water temperature 30.2 ° C

Date/timePositionNaut miles runAvg speedWind from/ knotsBaromVisibWave heightAir tempDewpointWater temp
2014-Jul-29 07:00N 08°59' E 160°10'0 0.1 30.2
2014-Jul-29 06:00N 08°59' E 160°10'0 0.5 30.3
2014-Jul-29 05:00N 08°59' E 160°10'1 0.3 30.4
2014-Jul-29 03:00N 08°60' E 160°10'1 0.5 30.1
2014-Jul-29 00:00N 09°01' E 160°11'0 0.0 29.8
2014-Jul-28 22:00N 09°01' E 160°11'1 0.2 29.6
2014-Jul-28 17:00N 09°01' E 160°10'1 0.2 29.6
2014-Jul-28 09:00N 09°01' E 160°12'1 0.3 29.9
2014-Jul-28 07:00N 09°01' E 160°12'0 0.2 30.0
2014-Jul-28 06:00N 09°01' E 160°12'0 0.0 30.1
2014-Jul-28 03:00N 09°01' E 160°12'1 0.8 29.8
2014-Jul-28 02:00N 09°02' E 160°12'0 0.0 29.9
2014-Jul-28 01:00N 09°02' E 160°12'1 0.1 29.7
2014-Jul-27 19:00N 09°03' E 160°12'0 0.0 29.4
2014-Jul-27 18:00N 09°03' E 160°12'0 0.0 29.4
2014-Jul-27 17:00N 09°03' E 160°12'1 0.7 29.4
2014-Jul-27 16:00N 09°03' E 160°12'1 0.2 29.4
2014-Jul-27 11:00N 09°04' E 160°11'1 1.2 29.4
2014-Jul-27 10:00N 09°05' E 160°10'0 0.0 29.4
2014-Jul-27 08:00N 09°05' E 160°10'1 0.3 29.4
2014-Jul-27 04:00N 09°05' E 160°09'1 0.8 29.6
2014-Jul-27 03:00N 09°05' E 160°08'0 0.0 29.6
2014-Jul-27 02:00N 09°05' E 160°08'0 0.0 29.5
2014-Jul-27 01:00N 09°05' E 160°08'1 0.4 29.4
2014-Jul-26 23:00N 09°06' E 160°07'1 1.4 29.4
2014-Jul-26 22:00N 09°05' E 160°06'0 0.1 29.4
2014-Jul-26 18:00N 09°05' E 160°06'0 0.1 29.4
2014-Jul-26 15:00N 09°05' E 160°06'0 0.1 29.4
2014-Jul-26 11:00N 09°04' E 160°06'2 0.2 29.5
2014-Jul-26 04:00N 09°03' E 160°06'1 0.6 29.7
2014-Jul-26 03:00N 09°02' E 160°07'3 0.5 29.6
2014-Jul-25 21:00N 09°03' E 160°10'2 0.9 29.4
2014-Jul-25 19:00N 09°04' E 160°12'0 0.2 29.4
2014-Jul-25 18:00N 09°04' E 160°12'0 0.0 29.4
2014-Jul-25 17:00N 09°04' E 160°12'4 1.8 29.4
2014-Jul-25 15:00N 09°08' E 160°13'4 0.5 29.5
2014-Jul-25 07:00N 09°11' E 160°14'1 0.5 30.0
2014-Jul-25 05:00N 09°12' E 160°13'1 0.7 30.3
2014-Jul-25 04:00N 09°13' E 160°13'1 1.2 30.1
2014-Jul-25 03:00N 09°14' E 160°12'3 0.6 29.7
2014-Jul-24 22:00N 09°16' E 160°10'2 0.5 29.5
2014-Jul-24 18:00N 09°18' E 160°09'0 0.1 29.5
2014-Jul-24 15:00N 09°18' E 160°09'2 0.5 29.6
2014-Jul-24 10:00N 09°20' E 160°08'2 2.1 30.1
2014-Jul-24 09:00N 09°22' E 160°07'2 0.5 30.2
2014-Jul-24 05:00N 09°22' E 160°05'1 0.2 30.4
2014-Jul-24 02:00N 09°22' E 160°05'1 0.4 30.5
2014-Jul-24 00:00N 09°22' E 160°04'2 0.3 30.0
2014-Jul-23 18:00N 09°24' E 160°05'2 0.7 29.4
2014-Jul-23 15:00N 09°22' E 160°03'2 0.4 29.4
2014-Jul-23 10:00N 09°22' E 160°05'1 0.3 29.5
2014-Jul-23 07:00N 09°23' E 160°05'1 0.4 29.6
2014-Jul-23 05:00N 09°24' E 160°05'0 0.2 29.7
2014-Jul-23 04:00N 09°24' E 160°05'0 0.0 29.8
2014-Jul-23 03:00N 09°24' E 160°05'1 0.2 29.7
2014-Jul-22 20:00N 09°25' E 160°05'1 1.0 29.3
2014-Jul-22 19:00N 09°26' E 160°06'1 1.0 29.3
2014-Jul-22 18:00N 09°27' E 160°05'0 0.0 29.3
2014-Jul-22 16:00N 09°27' E 160°05'0 0.0 29.3
2014-Jul-22 15:00N 09°27' E 160°05'1 1.0 29.3
2014-Jul-22 14:00N 09°27' E 160°06'0 0.0 29.3
2014-Jul-22 11:00N 09°27' E 160°06'1 0.5 29.4
2014-Jul-22 09:00N 09°28' E 160°06'0 0.0 29.4
2014-Jul-22 05:00N 09°28' E 160°06'1 1.3 29.6
2014-Jul-22 04:00N 09°29' E 160°05'0 0.0 29.7
2014-Jul-22 03:00N 09°29' E 160°05'0 0.1 29.7
2014-Jul-21 23:00N 09°29' E 160°04'1 0.2 29.4
2014-Jul-21 19:00N 09°28' E 160°04'0 0.0 29.3
2014-Jul-21 18:00N 09°28' E 160°04'0 0.0 29.4
2014-Jul-21 16:00N 09°28' E 160°04'0 0.3 29.4
2014-Jul-21 15:00N 09°28' E 160°03'3 0.5 29.4
2014-Jul-21 10:00N 09°26' E 160°05'1 0.2 29.4
2014-Jul-21 06:00N 09°27' E 160°05'1 0.3 29.5
2014-Jul-21 04:00N 09°26' E 160°05'0 0.5 29.5
2014-Jul-21 03:00N 09°26' E 160°04'2 0.2 29.5
2014-Jul-20 16:00N 09°25' E 160°06'0 0.3 29.4
2014-Jul-20 15:00N 09°25' E 160°05'3 0.7 29.5
2014-Jul-20 11:00N 09°22' E 160°07'3 0.5 29.5
2014-Jul-20 04:00N 09°23' E 160°10'0 0.0 29.7
2014-Jul-20 03:00N 09°23' E 160°10'2 0.3 29.6
2014-Jul-19 22:00N 09°24' E 160°12'0 0.0 29.4
2014-Jul-19 20:00N 09°24' E 160°12'1 1.2 29.4
2014-Jul-19 19:00N 09°25' E 160°13'3 0.3 29.4
2014-Jul-19 11:00N 09°27' E 160°13'1 0.5 29.5
2014-Jul-19 09:00N 09°28' E 160°14'   29.6

Dump ship's entire track history